| time (UTC) | temp F | wind direction | speed MPH | gust MPH | rain 1hr in | rain 24hr in | rain mn in | humidity % | barometer mb |
| 20260508231333 | 57 | 229 | 2.0 | 9.0 | 0.00 | 0.00 | 0.00 | 29 | 1007.0 |
| 20260508230826 | 57 | 234 | 2.0 | 9.0 | 0.00 | 0.00 | 0.00 | 30 | 1007.0 |
| 20260508230320 | 57 | 157 | 2.0 | 7.0 | 0.00 | 0.00 | 0.00 | 33 | 1007.1 |
| 20260508225833 | 57 | 138 | 2.0 | 4.0 | 0.00 | 0.00 | 0.00 | 35 | 1007.1 |
| 20260508225325 | 57 | 198 | 2.0 | 6.0 | 0.00 | 0.00 | 0.00 | 37 | 1007.2 |
| 20260508224819 | 56 | 190 | 2.0 | 8.0 | 0.00 | 0.00 | 0.00 | 40 | 1007.2 |
| 20260508224337 | 56 | 154 | 1.0 | 10.0 | 0.00 | 0.00 | 0.00 | 41 | 1007.3 |
| 20260508223828 | 56 | 191 | 5.0 | 10.0 | 0.00 | 0.00 | 0.00 | 44 | 1007.4 |
| 20260508223325 | 57 | 165 | 3.0 | 5.0 | 0.00 | 0.00 | 0.00 | 41 | 1007.6 |
| 20260508222830 | 57 | 202 | 2.0 | 5.0 | 0.00 | 0.00 | 0.00 | 43 | 1007.7 |
| 20260508222340 | 57 | 192 | 2.0 | 6.0 | 0.00 | 0.00 | 0.00 | 44 | 1007.7 |
| 20260508221849 | 57 | 105 | 2.0 | 6.0 | 0.00 | 0.00 | 0.00 | 46 | 1007.7 |
| 20260508221335 | 57 | 204 | 3.0 | 6.0 | 0.00 | 0.00 | 0.00 | 46 | 1007.8 |
| 20260508220828 | 56 | 198 | 2.0 | 6.0 | 0.00 | 0.00 | 0.00 | 46 | 1007.8 |
| 20260508220333 | 56 | 152 | 2.0 | 6.0 | 0.00 | 0.00 | 0.00 | 47 | 1007.8 |
| 20260508215850 | 57 | 200 | 3.0 | 8.0 | 0.00 | 0.00 | 0.00 | 47 | 1007.9 |
| 20260508215324 | 56 | 192 | 2.0 | 8.0 | 0.00 | 0.00 | 0.00 | 49 | 1007.9 |
| 20260508214821 | 57 | 211 | 3.0 | 7.0 | 0.00 | 0.00 | 0.00 | 46 | 1007.9 |
| 20260508214352 | 57 | 204 | 2.0 | 7.0 | 0.00 | 0.00 | 0.00 | 47 | 1007.9 |
| 20260508213838 | 57 | 225 | 3.0 | 7.0 | 0.00 | 0.00 | 0.00 | 46 | 1007.9 |
| 20260508213326 | 57 | 174 | 2.0 | 6.0 | 0.00 | 0.00 | 0.00 | 47 | 1007.9 |
| 20260508212840 | 56 | 159 | 3.0 | 8.0 | 0.00 | 0.00 | 0.00 | 47 | 1008.0 |
| 20260508212323 | 56 | 200 | 4.0 | 8.0 | 0.00 | 0.00 | 0.00 | 50 | 1008.1 |
| 20260508211816 | 55 | 142 | 3.0 | 9.0 | 0.00 | 0.00 | 0.00 | 53 | 1008.2 |
| 20260508211334 | 55 | 185 | 4.0 | 9.0 | 0.00 | 0.00 | 0.00 | 53 | 1008.2 |
| 20260508210828 | 54 | 222 | 2.0 | 8.0 | 0.00 | 0.00 | 0.00 | 55 | 1008.2 |
| 20260508210323 | 54 | 227 | 2.0 | 9.0 | 0.00 | 0.00 | 0.00 | 57 | 1008.3 |
| 20260508205816 | 54 | 194 | 3.0 | 9.0 | 0.00 | 0.00 | 0.00 | 56 | 1008.3 |
| 20260508205334 | 54 | 217 | 3.0 | 7.0 | 0.00 | 0.00 | 0.00 | 56 | 1008.4 |
| 20260508204827 | 54 | 202 | 3.0 | 7.0 | 0.00 | 0.00 | 0.00 | 56 | 1008.6 |
| 20260508204341 | 55 | 163 | 3.0 | 7.0 | 0.00 | 0.00 | 0.00 | 56 | 1008.7 |
| 20260508203832 | 55 | 193 | 2.0 | 8.0 | 0.00 | 0.00 | 0.00 | 57 | 1008.7 |
| 20260508203327 | 55 | 211 | 4.0 | 8.0 | 0.00 | 0.00 | 0.00 | 57 | 1008.7 |
| 20260508202818 | 54 | 201 | 2.0 | 7.0 | 0.00 | 0.00 | 0.00 | 58 | 1008.8 |
| 20260508202334 | 55 | 213 | 3.0 | 7.0 | 0.00 | 0.00 | 0.00 | 56 | 1008.9 |
| 20260508201833 | 55 | 196 | 3.0 | 7.0 | 0.00 | 0.00 | 0.00 | 58 | 1008.9 |
| 20260508201343 | 54 | 215 | 2.0 | 7.0 | 0.00 | 0.00 | 0.00 | 58 | 1009.0 |
| 20260508200816 | 54 | 185 | 4.0 | 10.0 | 0.00 | 0.00 | 0.00 | 59 | 1009.1 |
| 20260508200328 | 54 | 298 | 5.0 | 10.0 | 0.00 | 0.00 | 0.00 | 59 | 1009.1 |
| 20260508195822 | 54 | 205 | 4.0 | 11.0 | 0.00 | 0.00 | 0.00 | 60 | 1009.1 |
| 20260508195338 | 54 | 263 | 5.0 | 11.0 | 0.00 | 0.00 | 0.00 | 61 | 1009.2 |
| 20260508194845 | 55 | 222 | 4.0 | 10.0 | 0.00 | 0.00 | 0.00 | 60 | 1009.2 |
| 20260508194316 | 54 | 197 | 3.0 | 7.0 | 0.00 | 0.00 | 0.00 | 60 | 1009.3 |
| 20260508193830 | 54 | 207 | 3.0 | 7.0 | 0.00 | 0.00 | 0.00 | 61 | 1009.3 |
| 20260508193326 | 54 | 204 | 4.0 | 9.0 | 0.00 | 0.00 | 0.00 | 61 | 1009.5 |
| 20260508192821 | 53 | 195 | 4.0 | 9.0 | 0.00 | 0.00 | 0.00 | 61 | 1009.6 |
| 20260508192356 | 54 | 197 | 3.0 | 9.0 | 0.00 | 0.00 | 0.00 | 61 | 1009.6 |
| 20260508191825 | 54 | 194 | 2.0 | 9.0 | 0.00 | 0.00 | 0.00 | 62 | 1009.6 |
| 20260508191341 | 54 | 205 | 4.0 | 7.0 | 0.00 | 0.00 | 0.00 | 61 | 1009.7 |
| 20260508190816 | 54 | 224 | 3.0 | 9.0 | 0.00 | 0.00 | 0.00 | 61 | 1009.7 |
| 20260508190329 | 54 | 219 | 2.0 | 10.0 | 0.00 | 0.00 | 0.00 | 61 | 1009.7 |
| 20260508185819 | 53 | 110 | 2.0 | 10.0 | 0.00 | 0.00 | 0.00 | 62 | 1009.7 |
| 20260508185333 | 54 | 211 | 3.0 | 9.0 | 0.00 | 0.00 | 0.00 | 61 | 1009.8 |
| 20260508184840 | 54 | 209 | 4.0 | 9.0 | 0.00 | 0.00 | 0.00 | 61 | 1009.8 |
| 20260508184326 | 53 | 203 | 4.0 | 9.0 | 0.00 | 0.00 | 0.00 | 61 | 1009.9 |
| 20260508183823 | 53 | 225 | 5.0 | 11.0 | 0.00 | 0.00 | 0.00 | 60 | 1010.0 |
| 20260508183336 | 53 | 229 | 4.0 | 11.0 | 0.00 | 0.00 | 0.00 | 61 | 1010.1 |
| 20260508182821 | 53 | 242 | 5.0 | 8.0 | 0.00 | 0.00 | 0.00 | 61 | 1010.0 |
| 20260508182314 | 53 | 218 | 4.0 | 9.0 | 0.00 | 0.00 | 0.00 | 61 | 1010.1 |
| 20260508181827 | 52 | 194 | 4.0 | 9.0 | 0.00 | 0.00 | 0.00 | 61 | 1010.2 |
| 20260508181341 | 53 | 217 | 5.0 | 9.0 | 0.00 | 0.00 | 0.00 | 61 | 1010.3 |
| 20260508180815 | 52 | 241 | 5.0 | 10.0 | 0.00 | 0.00 | 0.00 | 62 | 1010.3 |
| 20260508180332 | 52 | 218 | 4.0 | 10.0 | 0.00 | 0.00 | 0.00 | 61 | 1010.4 |
| 20260508175825 | 52 | 242 | 4.0 | 10.0 | 0.00 | 0.00 | 0.00 | 62 | 1010.5 |
| 20260508175320 | 53 | 249 | 4.0 | 10.0 | 0.00 | 0.00 | 0.00 | 61 | 1010.5 |
| 20260508174855 | 53 | 200 | 4.0 | 8.0 | 0.00 | 0.00 | 0.00 | 61 | 1010.6 |
| 20260508174341 | 53 | 212 | 2.0 | 6.0 | 0.00 | 0.00 | 0.00 | 62 | 1010.6 |
| 20260508173829 | 52 | 215 | 2.0 | 9.0 | 0.00 | 0.00 | 0.00 | 62 | 1010.7 |
| 20260508173318 | 52 | 188 | 3.0 | 9.0 | 0.00 | 0.00 | 0.00 | 62 | 1010.7 |
| 20260508172832 | 52 | 230 | 3.0 | 7.0 | 0.00 | 0.00 | 0.00 | 62 | 1010.8 |
| 20260508172319 | 52 | 237 | 3.0 | 7.0 | 0.00 | 0.00 | 0.00 | 62 | 1010.9 |
| 20260508171832 | 52 | 197 | 3.0 | 7.0 | 0.00 | 0.00 | 0.00 | 61 | 1011.0 |
| 20260508171330 | 52 | 163 | 2.0 | 9.0 | 0.00 | 0.00 | 0.00 | 62 | 1011.1 |
| 20260508170833 | 52 | 232 | 4.0 | 9.0 | 0.00 | 0.00 | 0.00 | 62 | 1011.1 |
| 20260508170328 | 52 | 194 | 3.0 | 7.0 | 0.00 | 0.00 | 0.00 | 62 | 1011.3 |
| 20260508165836 | 52 | 209 | 4.0 | 8.0 | 0.00 | 0.00 | 0.00 | 62 | 1011.3 |
| 20260508165323 | 52 | 166 | 4.0 | 8.0 | 0.00 | 0.00 | 0.00 | 62 | 1011.3 |
| 20260508164833 | 52 | 214 | 3.0 | 9.0 | 0.00 | 0.00 | 0.00 | 63 | 1011.4 |
| 20260508164326 | 52 | 144 | 3.0 | 7.0 | 0.00 | 0.00 | 0.00 | 62 | 1011.4 |
| 20260508163826 | 52 | 234 | 3.0 | 7.0 | 0.00 | 0.00 | 0.00 | 62 | 1011.6 |
| 20260508163339 | 52 | 194 | 2.0 | 5.0 | 0.00 | 0.00 | 0.00 | 62 | 1011.5 |
| 20260508162825 | 52 | 190 | 2.0 | 5.0 | 0.00 | 0.00 | 0.00 | 63 | 1011.5 |
| 20260508162350 | 52 | 159 | 2.0 | 6.0 | 0.00 | 0.00 | 0.00 | 64 | 1011.5 |
| 20260508161826 | 51 | 219 | 2.0 | 9.0 | 0.00 | 0.00 | 0.00 | 63 | 1011.6 |
| 20260508161320 | 51 | 174 | 3.0 | 9.0 | 0.00 | 0.00 | 0.00 | 64 | 1011.6 |
| 20260508160834 | 51 | 190 | 2.0 | 6.0 | 0.00 | 0.00 | 0.00 | 64 | 1011.5 |
| 20260508160322 | 50 | 156 | 2.0 | 7.0 | 0.00 | 0.00 | 0.00 | 64 | 1011.4 |
| 20260508155839 | 50 | 201 | 3.0 | 7.0 | 0.00 | 0.00 | 0.00 | 64 | 1011.6 |
| 20260508155342 | 50 | 195 | 2.0 | 9.0 | 0.00 | 0.00 | 0.00 | 64 | 1011.4 |
| 20260508154855 | 50 | 248 | 3.0 | 8.0 | 0.00 | 0.00 | 0.00 | 64 | 1011.6 |
| 20260508154322 | 50 | 197 | 4.0 | 8.0 | 0.00 | 0.00 | 0.00 | 64 | 1011.7 |
| 20260508153818 | 50 | 187 | 4.0 | 9.0 | 0.00 | 0.00 | 0.00 | 64 | 1011.6 |
| 20260508153353 | 50 | 145 | 3.0 | 9.0 | 0.00 | 0.00 | 0.00 | 64 | 1011.7 |
| 20260508152828 | 49 | 243 | 2.0 | 7.0 | 0.00 | 0.00 | 0.00 | 64 | 1011.8 |
| 20260508152323 | 49 | 196 | 3.0 | 7.0 | 0.00 | 0.00 | 0.00 | 64 | 1011.7 |
| 20260508151832 | 49 | 209 | 3.0 | 7.0 | 0.00 | 0.00 | 0.00 | 64 | 1011.8 |
| 20260508151319 | 49 | 168 | 3.0 | 7.0 | 0.00 | 0.00 | 0.00 | 64 | 1011.8 |
| 20260508150834 | 49 | 242 | 3.0 | 7.0 | 0.00 | 0.00 | 0.00 | 65 | 1011.8 |
| 20260508150328 | 49 | 259 | 2.0 | 10.0 | 0.00 | 0.00 | 0.00 | 66 | 1011.8 |
| 20260508145822 | 48 | 175 | 3.0 | 10.0 | 0.00 | 0.00 | 0.00 | 64 | 1011.7 |
| 20260508145314 | 49 | 232 | 4.0 | 9.0 | 0.00 | 0.00 | 0.00 | 63 | 1011.8 |
| 20260508144849 | 49 | 205 | 3.0 | 7.0 | 0.00 | 0.00 | 0.00 | 62 | 1011.8 |
| 20260508144326 | 49 | 210 | 3.0 | 7.0 | 0.00 | 0.00 | 0.00 | 63 | 1011.8 |
| 20260508143840 | 49 | 197 | 3.0 | 8.0 | 0.00 | 0.00 | 0.00 | 63 | 1011.8 |
| 20260508143335 | 49 | 209 | 5.0 | 8.0 | 0.00 | 0.00 | 0.00 | 62 | 1011.7 |
| 20260508142825 | 49 | 202 | 3.0 | 9.0 | 0.00 | 0.00 | 0.00 | 62 | 1011.8 |
| 20260508142350 | 49 | 185 | 4.0 | 9.0 | 0.00 | 0.00 | 0.00 | 62 | 1011.7 |
| 20260508141826 | 49 | 194 | 2.0 | 8.0 | 0.00 | 0.00 | 0.00 | 62 | 1011.7 |
| 20260508141339 | 48 | 213 | 2.0 | 8.0 | 0.00 | 0.00 | 0.00 | 62 | 1011.7 |
| 20260508140834 | 48 | 196 | 4.0 | 7.0 | 0.00 | 0.00 | 0.00 | 61 | 1011.7 |
| 20260508140328 | 48 | 221 | 3.0 | 6.0 | 0.00 | 0.00 | 0.00 | 61 | 1011.7 |
| 20260508135822 | 48 | 197 | 3.0 | 6.0 | 0.00 | 0.00 | 0.00 | 61 | 1011.7 |
| 20260508135355 | 48 | 264 | 3.0 | 6.0 | 0.00 | 0.00 | 0.00 | 61 | 1011.8 |
| 20260508134819 | 48 | 213 | 2.0 | 7.0 | 0.00 | 0.00 | 0.00 | 61 | 1011.8 |
| 20260508134335 | 48 | 239 | 3.0 | 9.0 | 0.00 | 0.00 | 0.00 | 61 | 1011.7 |
| 20260508133819 | 48 | 160 | 3.0 | 9.0 | 0.00 | 0.00 | 0.00 | 61 | 1011.7 |
| 20260508133326 | 48 | 218 | 3.0 | 7.0 | 0.00 | 0.00 | 0.00 | 61 | 1011.7 |
| 20260508132842 | 48 | 197 | 1.0 | 6.0 | 0.00 | 0.00 | 0.00 | 62 | 1011.7 |
| 20260508132328 | 47 | 206 | 3.0 | 7.0 | 0.00 | 0.00 | 0.00 | 62 | 1011.8 |
| 20260508131824 | 47 | 216 | 2.0 | 7.0 | 0.00 | 0.00 | 0.00 | 62 | 1011.8 |
| 20260508131340 | 47 | 201 | 3.0 | 6.0 | 0.00 | 0.00 | 0.00 | 62 | 1011.8 |
| 20260508130826 | 47 | 219 | 3.0 | 6.0 | 0.00 | 0.00 | 0.00 | 62 | 1011.7 |
| 20260508130319 | 47 | 207 | 3.0 | 6.0 | 0.00 | 0.00 | 0.00 | 62 | 1011.8 |
| 20260508125834 | 47 | 211 | 3.0 | 5.0 | 0.00 | 0.00 | 0.00 | 63 | 1011.8 |
| 20260508125339 | 47 | 202 | 3.0 | 5.0 | 0.00 | 0.00 | 0.00 | 63 | 1011.8 |
| 20260508124826 | 46 | 190 | 1.0 | 6.0 | 0.00 | 0.00 | 0.00 | 63 | 1011.9 |
| 20260508124341 | 46 | 148 | 2.0 | 6.0 | 0.00 | 0.00 | 0.00 | 65 | 1011.9 |
| 20260508123827 | 45 | 215 | 1.0 | 4.0 | 0.00 | 0.00 | 0.00 | 68 | 1011.9 |
| 20260508123320 | 45 | 227 | 0.0 | 5.0 | 0.00 | 0.00 | 0.00 | 74 | 1011.9 |
| 20260508122816 | 44 | 203 | 1.0 | 5.0 | 0.00 | 0.00 | 0.00 | 77 | 1012.0 |
| 20260508122349 | 43 | 306 | 0.0 | 2.0 | 0.00 | 0.00 | 0.00 | 78 | 1011.8 |
| 20260508121842 | 43 | 230 | 0.0 | 2.0 | 0.00 | 0.00 | 0.00 | 79 | 1011.8 |
| 20260508121349 | 42 | 238 | 0.0 | 2.0 | 0.00 | 0.00 | 0.00 | 79 | 1011.8 |
| 20260508120832 | 41 | 284 | 0.0 | 1.0 | 0.00 | 0.00 | 0.00 | 79 | 1011.8 |
| 20260508120339 | 41 | 291 | 0.0 | 2.0 | 0.00 | 0.00 | 0.00 | 79 | 1011.7 |
| 20260508115824 | 40 | 70 | 1.0 | 2.0 | 0.00 | 0.00 | 0.00 | 79 | 1011.6 |
| 20260508115355 | 40 | 69 | 1.0 | 2.0 | 0.00 | 0.00 | 0.00 | 79 | 1011.6 |
| 20260508114823 | 39 | 69 | 1.0 | 2.0 | 0.00 | 0.00 | 0.00 | 79 | 1011.6 |
| 20260508114314 | 39 | 70 | 1.0 | 2.0 | 0.00 | 0.00 | 0.00 | 79 | 1011.5 |
| 20260508113849 | 39 | 71 | 1.0 | 3.0 | 0.00 | 0.00 | 0.00 | 79 | 1011.5 |
| 20260508113326 | 38 | 69 | 2.0 | 3.0 | 0.00 | 0.00 | 0.00 | 79 | 1011.3 |
| 20260508112823 | 38 | 71 | 2.0 | 3.0 | 0.00 | 0.00 | 0.00 | 78 | 1011.4 |
| 20260508112321 | 38 | 71 | 1.0 | 3.0 | 0.00 | 0.00 | 0.00 | 79 | 1011.3 |
| 20260508111816 | 38 | 69 | 2.0 | 3.0 | 0.00 | 0.00 | 0.00 | 78 | 1011.3 |
| 20260508111335 | 37 | 69 | 3.0 | 3.0 | 0.00 | 0.00 | 0.00 | 77 | 1011.3 |
| 20260508110823 | 37 | 67 | 2.0 | 3.0 | 0.00 | 0.00 | 0.00 | 77 | 1011.2 |
| 20260508110335 | 37 | 68 | 3.0 | 3.0 | 0.00 | 0.00 | 0.00 | 76 | 1011.1 |
| 20260508105826 | 37 | 71 | 2.0 | 3.0 | 0.00 | 0.00 | 0.00 | 75 | 1011.2 |
| 20260508105339 | 37 | 72 | 2.0 | 3.0 | 0.00 | 0.00 | 0.00 | 76 | 1011.2 |
| 20260508104825 | 37 | 70 | 2.0 | 3.0 | 0.00 | 0.00 | 0.00 | 76 | 1011.2 |
| 20260508104321 | 37 | 71 | 2.0 | 3.0 | 0.00 | 0.00 | 0.00 | 75 | 1011.2 |
| 20260508103833 | 37 | 69 | 2.0 | 3.0 | 0.00 | 0.00 | 0.00 | 75 | 1011.2 |
| 20260508103322 | 37 | 67 | 2.0 | 3.0 | 0.00 | 0.00 | 0.00 | 74 | 1011.3 |
| 20260508102816 | 37 | 65 | 2.0 | 3.0 | 0.00 | 0.00 | 0.00 | 73 | 1011.1 |
| 20260508102331 | 38 | 64 | 2.0 | 3.0 | 0.00 | 0.00 | 0.00 | 73 | 1011.2 |
| 20260508101844 | 38 | 61 | 2.0 | 3.0 | 0.00 | 0.00 | 0.00 | 73 | 1011.3 |
| 20260508101330 | 38 | 67 | 2.0 | 3.0 | 0.00 | 0.00 | 0.00 | 73 | 1011.3 |
| 20260508100826 | 38 | 64 | 3.0 | 3.0 | 0.00 | 0.00 | 0.00 | 73 | 1011.2 |
| 20260508100342 | 38 | 68 | 2.0 | 3.0 | 0.00 | 0.00 | 0.00 | 73 | 1011.3 |
| 20260508095835 | 38 | 67 | 2.0 | 3.0 | 0.00 | 0.00 | 0.00 | 73 | 1011.3 |
| 20260508095328 | 38 | 67 | 2.0 | 3.0 | 0.00 | 0.00 | 0.00 | 72 | 1011.4 |
| 20260508094824 | 38 | 67 | 2.0 | 3.0 | 0.00 | 0.00 | 0.00 | 73 | 1011.5 |
| 20260508094321 | 38 | 69 | 2.0 | 3.0 | 0.00 | 0.00 | 0.00 | 73 | 1011.4 |
| 20260508093836 | 38 | 65 | 2.0 | 3.0 | 0.00 | 0.00 | 0.00 | 73 | 1011.5 |
| 20260508093329 | 38 | 68 | 2.0 | 3.0 | 0.00 | 0.00 | 0.00 | 73 | 1011.6 |
| 20260508092816 | 38 | 70 | 2.0 | 3.0 | 0.00 | 0.00 | 0.00 | 72 | 1011.5 |
| 20260508092348 | 39 | 69 | 2.0 | 3.0 | 0.00 | 0.00 | 0.00 | 73 | 1011.5 |
| 20260508091833 | 39 | 64 | 2.0 | 3.0 | 0.00 | 0.00 | 0.00 | 73 | 1011.5 |
| 20260508091328 | 39 | 67 | 1.0 | 3.0 | 0.00 | 0.00 | 0.00 | 73 | 1011.6 |
| 20260508090819 | 39 | 69 | 2.0 | 3.0 | 0.00 | 0.00 | 0.00 | 72 | 1011.6 |
| 20260508090333 | 39 | 68 | 2.0 | 3.0 | 0.00 | 0.00 | 0.00 | 71 | 1011.7 |
| 20260508085818 | 39 | 71 | 2.0 | 3.0 | 0.00 | 0.00 | 0.00 | 70 | 1011.8 |
| 20260508085354 | 39 | 65 | 2.0 | 3.0 | 0.00 | 0.00 | 0.00 | 70 | 1011.8 |
| 20260508084829 | 39 | 65 | 2.0 | 2.0 | 0.00 | 0.00 | 0.00 | 70 | 1011.8 |
| 20260508084324 | 39 | 65 | 2.0 | 3.0 | 0.00 | 0.00 | 0.00 | 70 | 1011.8 |
| 20260508083838 | 39 | 65 | 2.0 | 3.0 | 0.00 | 0.00 | 0.00 | 69 | 1011.8 |
| 20260508083328 | 39 | 65 | 2.0 | 3.0 | 0.00 | 0.00 | 0.00 | 69 | 1011.7 |
| 20260508082821 | 39 | 65 | 2.0 | 2.0 | 0.00 | 0.00 | 0.00 | 69 | 1011.9 |
| 20260508082318 | 39 | 65 | 2.0 | 3.0 | 0.00 | 0.00 | 0.00 | 68 | 1011.9 |
| 20260508081853 | 39 | 64 | 2.0 | 3.0 | 0.00 | 0.00 | 0.00 | 68 | 1011.9 |
| 20260508081328 | 39 | 55 | 2.0 | 3.0 | 0.00 | 0.00 | 0.00 | 67 | 1012.0 |
| 20260508080822 | 39 | 67 | 2.0 | 3.0 | 0.00 | 0.00 | 0.00 | 66 | 1012.0 |
| 20260508080338 | 39 | 63 | 2.0 | 3.0 | 0.00 | 0.00 | 0.00 | 66 | 1012.0 |
| 20260508075829 | 39 | 57 | 2.0 | 3.0 | 0.00 | 0.00 | 0.00 | 66 | 1011.9 |
| 20260508075338 | 39 | 54 | 2.0 | 2.0 | 0.00 | 0.00 | 0.00 | 66 | 1011.9 |
| 20260508074824 | 39 | 55 | 2.0 | 2.0 | 0.00 | 0.00 | 0.00 | 66 | 1012.0 |
| 20260508074321 | 39 | 53 | 2.0 | 2.0 | 0.00 | 0.00 | 0.00 | 66 | 1012.0 |
| 20260508073849 | 39 | 53 | 2.0 | 2.0 | 0.00 | 0.00 | 0.00 | 66 | 1012.0 |
| 20260508073320 | 39 | 53 | 2.0 | 2.0 | 0.00 | 0.00 | 0.00 | 65 | 1012.0 |
| 20260508072836 | 40 | 47 | 1.0 | 2.0 | 0.00 | 0.00 | 0.00 | 65 | 1012.1 |
| 20260508072329 | 40 | 47 | 1.0 | 2.0 | 0.00 | 0.00 | 0.00 | 66 | 1012.1 |
| 20260508071845 | 40 | 52 | 1.0 | 3.0 | 0.00 | 0.00 | 0.00 | 66 | 1012.1 |
| 20260508071358 | 40 | 67 | 2.0 | 3.0 | 0.00 | 0.00 | 0.00 | 65 | 1012.1 |
| 20260508070848 | 40 | 70 | 2.0 | 3.0 | 0.00 | 0.00 | 0.00 | 64 | 1012.1 |
| 20260508070322 | 40 | 46 | 1.0 | 3.0 | 0.00 | 0.00 | 0.00 | 64 | 1012.1 |
| 20260508065816 | 40 | 62 | 1.0 | 3.0 | 0.00 | 0.00 | 0.00 | 64 | 1012.2 |
| 20260508065332 | 40 | 69 | 3.0 | 3.0 | 0.00 | 0.00 | 0.00 | 64 | 1012.2 |
| 20260508064849 | 40 | 71 | 1.0 | 2.0 | 0.00 | 0.00 | 0.00 | 63 | 1012.3 |
| 20260508064324 | 40 | 71 | 1.0 | 3.0 | 0.00 | 0.00 | 0.00 | 63 | 1012.3 |
| 20260508063851 | 40 | 71 | 2.0 | 3.0 | 0.00 | 0.00 | 0.00 | 63 | 1012.4 |
| 20260508063321 | 41 | 71 | 2.0 | 3.0 | 0.00 | 0.00 | 0.00 | 63 | 1012.3 |
| 20260508062831 | 41 | 69 | 2.0 | 3.0 | 0.00 | 0.00 | 0.00 | 63 | 1012.4 |
| 20260508062323 | 41 | 69 | 2.0 | 3.0 | 0.00 | 0.00 | 0.00 | 63 | 1012.3 |
| 20260508061833 | 41 | 69 | 2.0 | 3.0 | 0.00 | 0.00 | 0.00 | 63 | 1012.4 |
| 20260508061330 | 41 | 69 | 2.0 | 3.0 | 0.00 | 0.00 | 0.00 | 64 | 1012.4 |
| 20260508060826 | 41 | 69 | 2.0 | 3.0 | 0.00 | 0.00 | 0.00 | 63 | 1012.5 |
| 20260508060341 | 41 | 67 | 2.0 | 3.0 | 0.00 | 0.00 | 0.00 | 64 | 1012.5 |
| 20260508055825 | 41 | 74 | 3.0 | 3.0 | 0.00 | 0.00 | 0.00 | 63 | 1012.6 |
| 20260508055318 | 41 | 70 | 2.0 | 3.0 | 0.00 | 0.00 | 0.00 | 64 | 1012.6 |
| 20260508054851 | 41 | 71 | 3.0 | 3.0 | 0.00 | 0.00 | 0.00 | 64 | 1012.6 |
| 20260508054324 | 41 | 73 | 3.0 | 3.0 | 0.00 | 0.00 | 0.00 | 64 | 1012.5 |
| 20260508053837 | 41 | 67 | 3.0 | 3.0 | 0.00 | 0.00 | 0.00 | 64 | 1012.5 |
| 20260508053327 | 42 | 70 | 3.0 | 3.0 | 0.00 | 0.00 | 0.00 | 64 | 1012.5 |
| 20260508052841 | 42 | 69 | 3.0 | 3.0 | 0.00 | 0.00 | 0.00 | 64 | 1012.5 |
| 20260508052331 | 42 | 70 | 2.0 | 3.0 | 0.00 | 0.00 | 0.00 | 64 | 1012.6 |
| 20260508051825 | 42 | 70 | 2.0 | 3.0 | 0.00 | 0.00 | 0.00 | 64 | 1012.4 |
| 20260508051342 | 42 | 71 | 3.0 | 3.0 | 0.00 | 0.00 | 0.00 | 64 | 1012.6 |
| 20260508050833 | 42 | 71 | 3.0 | 3.0 | 0.00 | 0.00 | 0.00 | 64 | 1012.6 |
| 20260508050329 | 42 | 68 | 2.0 | 3.0 | 0.00 | 0.00 | 0.00 | 64 | 1012.6 |
| 20260508045832 | 42 | 72 | 2.0 | 3.0 | 0.00 | 0.00 | 0.00 | 64 | 1012.5 |
| 20260508045326 | 42 | 69 | 2.0 | 3.0 | 0.00 | 0.00 | 0.00 | 63 | 1012.4 |
| 20260508044822 | 42 | 70 | 2.0 | 3.0 | 0.00 | 0.00 | 0.00 | 63 | 1012.4 |
| 20260508044316 | 42 | 65 | 2.0 | 3.0 | 0.00 | 0.00 | 0.00 | 62 | 1012.5 |
| 20260508043831 | 42 | 65 | 2.0 | 3.0 | 0.00 | 0.00 | 0.00 | 62 | 1012.5 |
| 20260508043326 | 42 | 66 | 2.0 | 3.0 | 0.00 | 0.00 | 0.00 | 62 | 1012.5 |
| 20260508042834 | 42 | 69 | 2.0 | 3.0 | 0.00 | 0.00 | 0.00 | 62 | 1012.5 |
| 20260508042330 | 42 | 63 | 2.0 | 3.0 | 0.00 | 0.00 | 0.00 | 61 | 1012.6 |
| 20260508041841 | 42 | 57 | 2.0 | 3.0 | 0.00 | 0.00 | 0.00 | 61 | 1012.6 |
| 20260508041346 | 42 | 65 | 2.0 | 3.0 | 0.00 | 0.00 | 0.00 | 61 | 1012.6 |
| 20260508040817 | 42 | 61 | 2.0 | 3.0 | 0.00 | 0.00 | 0.00 | 61 | 1012.6 |
| 20260508040333 | 42 | 59 | 1.0 | 2.0 | 0.00 | 0.00 | 0.00 | 61 | 1012.7 |
| 20260508035840 | 42 | 59 | 1.0 | 2.0 | 0.00 | 0.00 | 0.00 | 61 | 1012.6 |
| 20260508035326 | 42 | 58 | 1.0 | 2.0 | 0.00 | 0.00 | 0.00 | 61 | 1012.6 |
| 20260508034840 | 42 | 57 | 1.0 | 2.0 | 0.00 | 0.00 | 0.00 | 61 | 1012.5 |
| 20260508034331 | 43 | 58 | 1.0 | 2.0 | 0.00 | 0.00 | 0.00 | 61 | 1012.3 |
| 20260508033819 | 43 | 55 | 1.0 | 2.0 | 0.00 | 0.00 | 0.00 | 62 | 1012.3 |
| 20260508033354 | 43 | 54 | 1.0 | 2.0 | 0.00 | 0.00 | 0.00 | 62 | 1012.3 |
| 20260508032827 | 43 | 55 | 1.0 | 2.0 | 0.00 | 0.00 | 0.00 | 62 | 1012.3 |
| 20260508032325 | 43 | 59 | 1.0 | 2.0 | 0.00 | 0.00 | 0.00 | 61 | 1012.3 |
| 20260508031819 | 43 | 55 | 1.0 | 2.0 | 0.00 | 0.00 | 0.00 | 60 | 1012.2 |
| 20260508031334 | 43 | 53 | 2.0 | 2.0 | 0.00 | 0.00 | 0.00 | 59 | 1012.4 |
| 20260508030826 | 43 | 53 | 1.0 | 2.0 | 0.00 | 0.00 | 0.00 | 58 | 1012.4 |
| 20260508030338 | 43 | 37 | 1.0 | 2.0 | 0.00 | 0.00 | 0.00 | 57 | 1012.3 |
| 20260508025844 | 43 | 5 | 1.0 | 2.0 | 0.00 | 0.00 | 0.00 | 56 | 1012.4 |
| 20260508025315 | 43 | 5 | 1.0 | 2.0 | 0.00 | 0.00 | 0.00 | 56 | 1012.4 |
| 20260508024832 | 43 | 360 | 2.0 | 2.0 | 0.00 | 0.00 | 0.00 | 55 | 1012.4 |
| 20260508024329 | 44 | 360 | 1.0 | 2.0 | 0.00 | 0.00 | 0.00 | 55 | 1012.4 |
| 20260508023838 | 44 | 355 | 1.0 | 2.0 | 0.00 | 0.00 | 0.00 | 55 | 1012.4 |
| 20260508023349 | 44 | 355 | 1.0 | 2.0 | 0.00 | 0.00 | 0.00 | 55 | 1012.4 |
| 20260508022820 | 44 | 355 | 1.0 | 2.0 | 0.00 | 0.00 | 0.00 | 56 | 1012.4 |
| 20260508022334 | 44 | 355 | 2.0 | 2.0 | 0.00 | 0.00 | 0.00 | 56 | 1012.3 |
| 20260508021828 | 44 | 342 | 1.0 | 2.0 | 0.00 | 0.00 | 0.00 | 56 | 1012.4 |
| 20260508021317 | 44 | 335 | 1.0 | 2.0 | 0.00 | 0.00 | 0.00 | 56 | 1012.3 |
| 20260508020827 | 44 | 335 | 0.0 | 1.0 | 0.00 | 0.00 | 0.00 | 57 | 1012.3 |
| 20260508020332 | 44 | 335 | 0.0 | 2.0 | 0.00 | 0.00 | 0.00 | 56 | 1012.2 |
| 20260508015829 | 44 | 335 | 1.0 | 2.0 | 0.00 | 0.00 | 0.00 | 56 | 1012.1 |
| 20260508015344 | 44 | 335 | 1.0 | 2.0 | 0.00 | 0.00 | 0.00 | 58 | 1012.1 |
| 20260508014833 | 44 | 335 | 1.0 | 2.0 | 0.00 | 0.00 | 0.00 | 59 | 1012.0 |
| 20260508014330 | 45 | 335 | 1.0 | 2.0 | 0.00 | 0.00 | 0.00 | 58 | 1011.8 |
| 20260508013842 | 45 | 335 | 1.0 | 2.0 | 0.00 | 0.00 | 0.00 | 59 | 1011.7 |
| 20260508013339 | 45 | 309 | 1.0 | 2.0 | 0.00 | 0.00 | 0.00 | 59 | 1011.6 |
| 20260508012822 | 46 | 304 | 1.0 | 1.0 | 0.00 | 0.00 | 0.00 | 59 | 1011.5 |
| 20260508012317 | 46 | 302 | 1.0 | 1.0 | 0.00 | 0.00 | 0.00 | 58 | 1011.6 |
| 20260508011834 | 47 | 286 | 1.0 | 1.0 | 0.00 | 0.00 | 0.00 | 57 | 1011.5 |
| 20260508011328 | 47 | 286 | 1.0 | 1.0 | 0.00 | 0.00 | 0.00 | 56 | 1011.5 |
| 20260508010831 | 48 | 286 | 0.0 | 0.0 | 0.00 | 0.00 | 0.00 | 55 | 1011.6 |
| 20260508010327 | 48 | 286 | 0.0 | 1.0 | 0.00 | 0.00 | 0.00 | 55 | 1011.6 |
| 20260508005835 | 48 | 286 | 0.0 | 1.0 | 0.00 | 0.00 | 0.00 | 54 | 1011.4 |
| 20260508005328 | 48 | 286 | 0.0 | 1.0 | 0.00 | 0.00 | 0.00 | 54 | 1011.4 |
| 20260508004817 | 49 | 286 | 0.0 | 0.0 | 0.00 | 0.00 | 0.00 | 55 | 1011.4 |
| 20260508004333 | 49 | 286 | 0.0 | 0.0 | 0.00 | 0.00 | 0.00 | 54 | 1011.4 |
| 20260508003826 | 49 | 286 | 0.0 | 0.0 | 0.00 | 0.00 | 0.00 | 54 | 1011.3 |
| 20260508003323 | 49 | 286 | 0.0 | 1.0 | 0.00 | 0.00 | 0.00 | 53 | 1011.4 |
| 20260508002837 | 49 | 286 | 0.0 | 1.0 | 0.00 | 0.00 | 0.00 | 53 | 1011.3 |
| 20260508002332 | 49 | 286 | 0.0 | 2.0 | 0.00 | 0.00 | 0.00 | 53 | 1011.3 |
| 20260508001827 | 49 | 286 | 1.0 | 2.0 | 0.00 | 0.00 | 0.00 | 53 | 1011.3 |
| 20260508001343 | 49 | 286 | 1.0 | 1.0 | 0.00 | 0.00 | 0.00 | 52 | 1011.3 |
| 20260508000833 | 49 | 286 | 0.0 | 2.0 | 0.00 | 0.00 | 0.00 | 53 | 1011.3 |
| 20260508000322 | 49 | 286 | 1.0 | 2.0 | 0.00 | 0.00 | 0.00 | 53 | 1011.3 |
| 20260507235817 | 48 | 286 | 1.0 | 2.0 | 0.00 | 0.00 | 0.00 | 53 | 1011.4 |
| 20260507235333 | 48 | 284 | 1.0 | 3.0 | 0.00 | 0.00 | 0.00 | 52 | 1011.4 |
| 20260507234846 | 48 | 287 | 1.0 | 3.0 | 0.00 | 0.00 | 0.00 | 51 | 1011.5 |
| 20260507234320 | 48 | 279 | 2.0 | 3.0 | 0.00 | 0.00 | 0.00 | 51 | 1011.6 |
| 20260507233836 | 48 | 269 | 2.0 | 3.0 | 0.00 | 0.00 | 0.00 | 51 | 1011.6 |
| 20260507233327 | 48 | 265 | 1.0 | 2.0 | 0.00 | 0.00 | 0.00 | 52 | 1011.7 |
| 20260507232833 | 48 | 278 | 2.0 | 3.0 | 0.00 | 0.00 | 0.00 | 51 | 1011.8 |
| 20260507232346 | 48 | 269 | 2.0 | 3.0 | 0.00 | 0.00 | 0.00 | 49 | 1011.9 |
| 20260507231829 | 49 | 277 | 2.0 | 3.0 | 0.00 | 0.00 | 0.00 | 47 | 1011.9 |